Weather Roundup
Issued by NWS Springfield, MO

Home | Current Version | Previous Version | Text Only | Print | Product List | Glossary On
Versions: 1 2 3 4 5 6 7 8 9 10 11 12 13 14 15 16 17 18 19 20 21 22 23 24 25 26 27 28 29 30 31 32 33 34 35 36 37 38 39 40 41 42 43 44 45 46 47 48 49 50
000
NZUS99 KSGF 031059
HRRSGF

HOURLY WEATHER
NATIONAL WEATHER SERVICE SPRINGFIELD MO
500 AM CST TUE MAR 03 2015

......SGF CWA......

CITY           SKY/WX    TMP DP  RH WIND       PRES   REMARKS
SPRINGFIELD    CLOUDY    34  31  88 S13G33    29.89F WCI  25
JOPLIN         CLOUDY    37  36  96 S14       29.89F FOG     WCI  28
WEST PLAINS    CLOUDY    32  29  88 S9        29.97F FOG     WCI  24
ROLLA          CLOUDY    34  30  85 S15       29.90F WCI  24
OSAGE BEACH    CLOUDY    36  28  75 S8        29.92S WCI  29

......SURROUNDING SGF CWA......

CITY           SKY/WX    TMP DP  RH WIND       PRES   REMARKS
CHANUTE        CLOUDY    36  36 100 S18G26    29.83F FOG     WCI  26
PARSONS        CLOUDY    37  37 100 S13G21    29.87F FOG     WCI  29
COFFEYVILLE    FOG       36  36 100 S16       29.88F VSB 1   WCI  26
EMPORIA        CLOUDY    36  35  96 S17G30    29.73F FOG     WCI  26
ROGERS AR      FOG       39  39 100 SW9       29.92F VSB 3/4 WCI  33
SILOAM SPRINGS CLOUDY    37  34  87 SW12      29.95R VSB 3/4 WCI  30
HARRISON AR    CLOUDY    38  38 100 SE16      29.92F FOG     WCI  29
NEAR YELLVILLE CLOUDY    36  30  80 S9        29.96F WCI  29

......KANSAS AND MISSOURI......

CITY           SKY/WX    TMP DP  RH WIND       PRES   REMARKS
KANSAS CTY INT DRIZZLE   35  34  96 S17       29.74F WCI  25
DOWNTOWN KC    CLOUDY    37  34  89 S16G25    29.77F WCI  28
COLUMBIA       CLOUDY    34  28  79 S9        29.90F WCI  27
SEDALIA        CLOUDY    36  30  79 S16       29.84F WCI  26
ST JOSEPH      CLOUDY    34  33  96 S12       29.73F FOG     WCI  25
ST LOUIS       CLOUDY    34  24  67 SE8       29.97F WCI  27
SPIRIT OF STL  CLOUDY    33  25  72 CALM      29.96F
KIRKSVILLE     CLOUDY    29  29 100 SE14      29.82F FOG     WCI  18
WICHITA        CLOUDY    36  33  89 S18G29    29.75F FOG     WCI  26
TOPEKA         CLOUDY    37  34  89 S12       29.72F WCI  29
OLATHE         CLOUDY    35  35 100 SW9G30    29.77F FOG     WCI  28

......TENNESSEE......

CITY           SKY/WX    TMP DP  RH WIND       PRES   REMARKS
MEMPHIS        DRIZZLE   45  43  93 S12       30.08F FOG
NASHVILLE      CLOUDY    45  39  79 SE5       30.13S

......ARKANSAS.......

CITY           SKY/WX    TMP DP  RH WIND       PRES   REMARKS
FAYETTEVILLE   CLOUDY    41  41 100 S12       29.93F
FT SMITH       CLOUDY    37  33  85 E9        30.00F FOG     WCI  30
LITTLE ROCK    LGT RAIN  35  33  92 CALM      30.09F VSB 1/2

......OKLAHOMA.......

CITY           SKY/WX    TMP DP  RH WIND       PRES   REMARKS
TULSA          LGT RAIN  39  39 100 S18G25    29.93F FOG     WCI  30
PONCA CITY     CLOUDY    40  37  89 S9G18     29.84F FOG     WCI  34
MCALESTER      CLOUDY    39  38  96 S10G20    29.99S FOG     WCI  32
OKLAHOMA CITY  CLOUDY    39  36  89 S24G31    29.89F FOG     WCI  28

......IOWA............

CITY           SKY/WX    TMP DP  RH WIND       PRES   REMARKS
DES MOINES     FRZ RAIN  30  25  81 S12       29.75F WCI  20
QUAD CITIES    FRZ RAIN  29  25  85 S12       29.90F FOG     WCI  19

......ILLINOIS........

CITY           SKY/WX    TMP DP  RH WIND       PRES   REMARKS
QUINCY         CLOUDY    28  25  88 SE12      29.90F FOG     WCI  18
CHICAGO        LGT SNOW  24  21  88 SE10      30.03F VSB 3/4 WCI  14



USA.gov is the U.S. government's official web portal to all federal, state and local government web resources and services.